Overview Statistics Trail Chart Weather Telemetry Raw packets
 

This is the latest recevied weather packets stored in our database for station/object WP3OF-2. If no packets are shown the sender has not sent any weather packets the latest 10 day(s).

<< 1 2 3 4 5 6 >>
Time Temp. Humidity Pressure Rain* Wind** Luminosity Snow
1788633938 25° C 93% 1023.7 hPa 0 mm - 216 W/m² -
1788633638 25° C 93% 1023.7 hPa 0 mm - 231 W/m² -
1788633332 24.44° C 95% 1023.7 hPa 0 mm - 208 W/m² -
1788633027 25° C 94% 1023.7 hPa 0 mm - 189 W/m² -
1788632727 23.89° C 94% 1023.7 hPa 0 mm - 381 W/m² -
1788632427 24.44° C 95% 1023.7 hPa 0 mm - 138 W/m² -
1788632122 24.44° C 95% 1023.7 hPa 0 mm - 139 W/m² -
1788631821 24.44° C 93% 1023.7 hPa 0 mm - 149 W/m² -
1788631516 25° C 92% 1023.7 hPa 0 mm - 200 W/m² -
1788631211 25° C 92% 1023.7 hPa 0 mm - 307 W/m² -
1788630910 24.44° C 93% 1024.1 hPa 0 mm - 394 W/m² -
1788630606 25° C 92% 1023.7 hPa 0 mm - 280 W/m² -
1788630301 25.56° C 90% 1023.7 hPa 0 mm - 306 W/m² -
1788629997 25.56° C 90% 1024.1 hPa 0 mm - 384 W/m² -
1788629693 26.11° C 86% 1024.1 hPa 0 mm - 924 W/m² -
1788629388 26.11° C 90% 1024.1 hPa 0 mm - 1076 W/m² -
1788629086 25.56° C 91% 1024.5 hPa 0 mm - 355 W/m² -
1788628782 25.56° C 89% 1024.1 hPa 0 mm - 462 W/m² -
1788628479 25.56° C 90% 1024.1 hPa 0 mm - 311 W/m² -
1788628175 25.56° C 89% 1024.1 hPa 0 mm - 751 W/m² -
1788627871 25.56° C 88% 1024.1 hPa 0 mm - 959 W/m² -
1788627570 26.11° C 86% 1024.5 hPa 0 mm - 1007 W/m² -
1788627265 26.11° C 89% 1024.9 hPa 0 mm - 421 W/m² -
1788626960 26.11° C 88% 1024.9 hPa 0 mm - 870 W/m² -
1788626654 26.11° C 88% 1024.5 hPa 0 mm - 409 W/m² -

* Rain latest hour (hover to see other rain measurements)
** Current wind speed in m/s (hover to see current wind gust speed)